This demonstration page uses our WeatherBlox Daily Observations layout. Learn more.

36.17497, -115.13722

Hourly Observations for June 9, 2018

Temp ( °F °C ) Dew Point ( °F °C ) Humidity (%) Winds ( mph kmh ) Pressure ( in mb ) Visibility ( mi km ) Precip ( " mm )
12:53 am 00:53 Clear 84 28.9 19 -7.2 9 9 WSW 5 7 29.77 1008 10 16.09344 0 0
1:53 am 01:53 Clear 79 26.1 23 -5 12 12 Calm 29.77 1008 10 16.09344 0 0
2:53 am 02:53 Clear 79 26.1 28 -2.2 15 15 Calm 29.77 1008 10 16.09344 0 0
3:53 am 03:53 Clear 73 22.8 27 -2.8 18 18 NNW 6 9 29.77 1008 10 16.09344 0 0
4:53 am 04:53 Clear 74 23.3 26 -3.3 17 17 WNW 6 9 29.77 1008 10 16.09344 0 0
5:53 am 05:53 Sunny 73 22.8 27 -2.8 18 18 WNW 7 11 29.77 1008 10 16.09344 0 0
6:53 am 06:53 Sunny 77 25 27 -2.8 16 16 N 3 6 29.8 1009 10 16.09344 0 0
7:53 am 07:53 Sunny 81 27.2 26 -3.3 13 13 E 6 9 29.8 1009 10 16.09344 0 0
8:53 am 08:53 Sunny 88 31.1 32 0 13 13 SE 9 15 29.77 1008 10 16.09344 0 0
9:53 am 09:53 Sunny 93 33.9 23 -5 8 8 S 17 28 29.77 1008 10 16.09344 0 0
10:53 am 10:53 Sunny 96 35.6 17 -8.3 5 5 SSW 21 33 29.74 1007 10 16.09344 0 0
11:53 am 11:53 Sunny 98 36.7 17 -8.3 5 5 S 21 33 29.74 1007 10 16.09344 0 0
12:53 pm 12:53 Sunny 99 37.2 14 -10 4 4 SW 23 37 29.71 1006 10 16.09344 0 0
1:53 pm 13:53 Sunny 101 38.3 14 -10 4 4 SSW 21 33 29.68 1005 10 16.09344 0 0
2:53 pm 14:53 Sunny 100 37.8 13 -10.6 4 4 SSW 20 31 29.68 1005 10 16.09344 0 0
3:53 pm 15:53 Sunny 100 37.8 16 -8.9 5 5 SSW 23 37 29.65 1004 10 16.09344 0 0
4:53 pm 16:53 Sunny 100 37.8 20 -6.7 5 5 SSW 21 33 29.62 1003 10 16.09344 0 0
5:53 pm 17:53 Sunny 99 37.2 13 -10.6 4 4 WSW 22 35 29.62 1003 10 16.09344 0 0
6:53 pm 18:53 Sunny 97 36.1 16 -8.9 5 5 WSW 23 37 29.62 1003 10 16.09344 0 0
7:53 pm 19:53 Sunny 93 33.9 25 -3.9 8 8 SSW 16 26 29.62 1003 10 16.09344 0 0
8:53 pm 20:53 Clear 91 32.8 26 -3.3 9 9 S 18 30 29.59 1002 10 16.09344 0 0
9:53 pm 21:53 Clear 89 31.7 23 -5 9 9 WSW 15 24 29.65 1004 10 16.09344 0 0
10:53 pm 22:53 Clear 86 30 29 -1.7 13 13 SSW 22 35 29.62 1003 10 16.09344 0 0
11:28 pm 23:28 Clear 84 28.9 31 -0.6 15 15 SSE 17 28 29.56 1001 10 16.09344 0 0
11:53 pm 23:53 Clear 84 28.9 34 1.1 17 17 SSW 21 33 29.65 1004 10 16.09344 0 0

Powered by AerisWeather